Home > Weather > Wroclaw > Past weeks

Flag for Poland Weather for the Past 2 Weeks in Wroclaw, Poland

Now
37 °F

Sunny.


Feels Like: 32 °F
Forecast: 30 / 44 °F
Wind: 7 mph from Southwest

Location: Wroclaw Ii

Current Time: Feb 12, 2016 at 9:53:23 AM

Latest Report: Feb 12, 2016 at 9:00 AM


Visibility: 10 mi

Pressure: 29.71 "Hg

Humidity: 75%

Dew point: 30 °F

Location of WroclawLocation

Historic Weather in Wroclaw — Graph

°F

Wroclaw Temperature Yesterday

Maximum temperature yesterday: 46 °F (at 12:30 PM)
Minimum temperature yesterday: 37 °F (at 8:30 PM)
Average temperature yesterday: 41 °F

High & Low Weather Summary for the Past Weeks

 TemperatureHumidityPressure
High59 °F (Feb 2, 2:30 PM)100% (Jan 31, 4:30 AM)30.30 "Hg (Jan 31, 4:30 AM)
Low34 °F (Jan 29, 7:00 AM)41% (Jan 30, 4:30 PM)29.18 "Hg (Feb 10, 12:30 AM)
Average45 °F69%29.85 "Hg
* Reported Jan 28 9:00 AM — Feb 12 9:00 AM, Wroclaw, Weather by CustomWeather, © 2016

Note: Actual official high and low records may vary slightly from our data, if they occured in-between our weather recording intervals... More about our weather records

Advertising

Wroclaw Weather History for the Previous 24 Hours

 ConditionsComfort  
Time TempWeatherWind HumidityBarometerVisibility
9:00 AM
Fri, Feb 12
37 °FSunny.7 mph75%29.71 "Hg10 mi
8:30 AM37 °FPassing clouds.5 mph75%29.71 "HgN/A
8:00 AM36 °FSunny.7 mph81%29.68 "Hg10 mi
7:00 AM36 °FClear.8 mph81%29.68 "Hg10 mi
6:30 AM36 °FClear.6 mph81%29.68 "Hg10 mi
6:00 AM36 °FPassing clouds.6 mph81%29.68 "HgN/A
5:30 AM36 °FClear.5 mph81%29.68 "Hg10 mi
5:00 AM36 °FPassing clouds.6 mph81%29.68 "HgN/A
4:30 AM36 °FPassing clouds.7 mph81%29.68 "HgN/A
4:00 AM36 °FClear.7 mph81%29.68 "Hg10 mi
3:30 AM36 °FClear.6 mph75%29.68 "Hg10 mi
3:00 AM36 °FClear.8 mph75%29.68 "Hg10 mi
2:30 AM36 °FClear.8 mph81%29.68 "Hg10 mi
2:00 AM36 °FPassing clouds.8 mph81%29.68 "HgN/A
1:30 AM36 °FClear.7 mph81%29.68 "Hg10 mi
1:00 AM36 °FClear.5 mph81%29.68 "Hg10 mi
12:30 AM36 °FClear.7 mph81%29.68 "Hg10 mi
12:00 AM36 °FClear.6 mph75%29.68 "Hg10 mi
11:00 PM
Thu, Feb 11
37 °FClear.6 mph75%29.68 "Hg10 mi
10:30 PM37 °FClear.7 mph75%29.68 "Hg10 mi
10:00 PM37 °FPassing clouds.6 mph75%29.65 "HgN/A
9:30 PM37 °FClear.6 mph70%29.65 "Hg10 mi
9:00 PM37 °FPassing clouds.5 mph70%29.65 "HgN/A
8:30 PM37 °FPassing clouds.5 mph75%29.65 "HgN/A
8:00 PM39 °FClear.8 mph65%29.65 "Hg10 mi
7:30 PM39 °FPassing clouds.9 mph65%29.65 "HgN/A
7:00 PM39 °FClear.12 mph65%29.65 "Hg10 mi
6:30 PM39 °FClear.10 mph70%29.65 "Hg10 mi
6:00 PM41 °FClear.13 mph66%29.62 "Hg10 mi
5:30 PM43 °FClear.15 mph61%29.62 "Hg10 mi
5:00 PM45 °FClear.12 mph57%29.62 "Hg10 mi
4:30 PM45 °FSunny.13 mph57%29.59 "Hg10 mi
4:00 PM45 °FPassing clouds.21 mph57%29.59 "HgN/A
3:30 PM45 °FPassing clouds.17 mph53%29.59 "HgN/A
3:00 PM45 °FPassing clouds.14 mph53%29.59 "HgN/A
2:30 PM45 °FPassing clouds.15 mph57%29.59 "HgN/A
2:00 PM46 °FScattered clouds.21 mph50%29.56 "HgN/A
1:30 PM46 °FPassing clouds.20 mph50%29.56 "HgN/A
1:00 PM45 °FPartly sunny.22 mph57%29.56 "HgN/A
12:30 PM46 °FPartly sunny.23 mph53%29.56 "HgN/A
12:00 PM45 °FPartly sunny.23 mph61%29.56 "HgN/A
11:30 AM45 °FScattered clouds.24 mph61%29.56 "HgN/A
11:00 AM43 °FSprinkles. Partly sunny.20 mph66%29.53 "HgN/A
10:30 AM43 °FBroken clouds.18 mph66%29.53 "HgN/A
10:00 AM43 °FLight rain. Partly sunny.20 mph71%29.53 "HgN/A
9:30 AM41 °FBroken clouds.16 mph81%29.53 "HgN/A
9:00 AM41 °FBroken clouds.13 mph81%29.50 "HgN/A
Weather by CustomWeather, © 2016

See weather overviewHow to use our weather pages